Regional Weather Roundup
Issued by NWS

Home | Current Version | Previous Version | Graphics & Text | Print | Product List | Glossary On
Versions: 1 2 3 4 5 6 7 8 9 10 11 12 13 14 15 16 17 18 19 20 21 22 23 24 25 26
000
ASUS45 KSLC 121710
RWRUT

UTAH REGIONAL WEATHER ROUNDUP
NATIONAL WEATHER SERVICE SALT LAKE CITY UT
1000 AM MST TUE DEC 12 2017

UTZ001>011-023>025-121800-

NORTHERN UTAH

CITY           SKY/WX    TMP DP  RH WIND       PRES   REMARKS
BRIGHAM CITY   CLOUDY    24  21  90 CALM      30.64R VSB 1/2
DUGWAY         SUNNY     24  16  73 VRB1      30.60S
HILL AFB       SUNNY     24  22  94 CALM      30.58R FOG
LOGAN          HAZE      20  13  74 NE3       30.63R VSB<1/4
OGDEN          CLOUDY    26  21  81 CALM      30.60R HAZE
SALT LAKE CITY SNOW      25  23  92 CALM      30.61S VSB 1/4
TOOELE VALLEY  CLOUDY    18  18 100 CALM      30.63R FOG
WENDOVER       FOG       18  16  93 E3        30.63R VSB 1
HEBER CITY       N/A     27  19  74 CALM      30.55S
WEST JORDAN    CLOUDY   N/A N/A N/A CALM      30.60F VSB<1/4

$$

UTZ011>015-024>027-121800-

CENTRAL/NORTHEAST UTAH

CITY           SKY/WX    TMP DP  RH WIND       PRES   REMARKS
PROVO AIRPORT  SUNNY     26  21  81 CALM      30.61R
MOAB/CANYONLAN PTSUNNY   32   4  30 CALM      30.53S
DELTA          PTSUNNY   23  14  68 CALM      30.58S
PRICE          SUNNY     38   7  27 CALM      30.51S
RICHFIELD      SUNNY     27   1  33 CALM      30.57S
ROOSEVELT      CLOUDY    28   9  43 CALM      30.60S
VERNAL         CLOUDY    32   9  38 CALM      30.57S

$$

UTZ013>016-019>022-027-121800-

SOUTHERN UTAH

CITY           SKY/WX    TMP DP  RH WIND       PRES   REMARKS
BRYCE CANYON   SUNNY     39   2  21 NW3       30.55S
CEDAR CITY     MOSUNNY   32   7  35 NE3       30.52R
MILFORD        MOSUNNY   23  12  62 S5        30.56R WCI  17
ST GEORGE      SUNNY     36   2  23 CALM      30.49S
HANKSVILLE     PTSUNNY   25   1  36 CALM      30.58S
KANAB          SUNNY     48   0  13 NE3       30.50F
BLANDING         N/A     38   4  24 CALM      30.60S

$$

REGIONAL REPORTS     COLORADO/ARIZONA

CITY           SKY/WX    TMP DP  RH WIND       PRES   REMARKS
CRAIG, CO      CLOUDY    22  14  71 CALM      30.55R
GRAND JUNCTION SUNNY     37  10  32 SE8       30.54R WCI  31
RIFLE, CO      SUNNY     33  12  41 VRB3      30.56F
MONTROSE, CO   SUNNY     36   4  26 CALM      30.57F
CORTEZ, CO     SUNNY     37   5  26 CALM      30.52S
COLORADO CITY    N/A     41   0  17 CALM      30.49R
PAGE, AZ       SUNNY     35  10  35 CALM      30.53R
GRAND CANYON   MOSUNNY   52  -4  10 VRB7      30.49R
KINGMAN, AZ    SUNNY     51   0  12 NE7       30.38R
FLAGSTAFF, AZ  SUNNY     47   4  17 E9        30.48R

$$

REGIONAL REPORTS    NEVADA/IDAHO/WYOMING

CITY           SKY/WX    TMP DP  RH WIND       PRES   REMARKS
LAS VEGAS, NV  MOSUNNY   51  -1  11 CALM      30.39R
ELY, NY        MOSUNNY   31   2  29 S10       30.54S WCI  22
ELKO, NV       PTSUNNY   17  11  77 CALM      30.59S
POCATELLO, ID  CLOUDY    19  15  84 CALM      30.58R
BURLEY, ID     FOG       20  17  88 CALM      30.59R VSB 1/4
FORT BRIDGER,    N/A     45  12  26 W8        30.54R
EVANSTON, WY   CLOUDY    37  12  35 SW5       30.53R WCI  33
ROCK SPRINGS,  CLOUDY    35   9  33 CALM      30.49S

$$




USA.gov is the U.S. government's official web portal to all federal, state and local government web resources and services.